Time,TemperatureF,DewpointF,PressureIn,WindDirection,WindDirectionDegrees,WindSpeedMPH,WindSpeedGustMPH,Humidity,HourlyPrecipIn,Conditions,Clouds,dailyrainin,SoftwareType,DateUTC
2013-01-16 00:11:00,32.5,20.2,30.11,ENE,67,6.8,-999.0,60,-99.99,,,0.00,Acu-Link.com,2013-01-16 05:11:00,
2013-01-16 00:26:00,32.5,19.8,30.11,NE,45,5.8,-999.0,59,-99.99,,,0.00,Acu-Link.com,2013-01-16 05:26:00,
2013-01-16 00:41:00,32.4,20.5,30.11,East,90,5.8,-999.0,61,-99.99,,,0.00,Acu-Link.com,2013-01-16 05:41:00,
2013-01-16 00:57:00,32.4,20.5,30.11,ENE,67,9.4,-999.0,61,-99.99,,,0.00,Acu-Link.com,2013-01-16 05:57:00,
2013-01-16 01:12:00,32.5,20.2,30.11,ENE,67,7.3,-999.0,60,-99.99,,,0.00,Acu-Link.com,2013-01-16 06:12:00,
2013-01-16 01:27:00,32.5,20.9,30.11,ESE,112,4.7,-999.0,62,-99.99,,,0.00,Acu-Link.com,2013-01-16 06:27:00,
2013-01-16 01:43:00,32.7,20.8,30.11,NE,45,5.3,-999.0,61,-99.99,,,0.00,Acu-Link.com,2013-01-16 06:43:00,
2013-01-16 01:58:00,32.9,21.3,30.10,ESE,112,8.9,-999.0,62,-99.99,,,0.00,Acu-Link.com,2013-01-16 06:58:00,
2013-01-16 02:13:00,33.1,20.7,30.11,ESE,112,6.3,-999.0,60,-99.99,,,0.00,Acu-Link.com,2013-01-16 07:13:00,
2013-01-16 02:28:00,33.1,20.7,30.10,ESE,112,9.4,-999.0,60,-99.99,,,0.00,Acu-Link.com,2013-01-16 07:28:00,
2013-01-16 02:44:00,33.1,20.7,30.09,ESE,112,9.9,-999.0,60,-99.99,,,0.00,Acu-Link.com,2013-01-16 07:44:00,
2013-01-16 02:59:00,33.1,20.4,30.09,SE,135,10.4,-999.0,59,-99.99,,,0.00,Acu-Link.com,2013-01-16 07:59:00,
2013-01-16 03:14:00,33.3,20.1,30.09,ESE,112,9.9,-999.0,58,-99.99,,,0.00,Acu-Link.com,2013-01-16 08:14:00,
2013-01-16 03:30:00,33.3,21.3,30.07,ENE,67,6.8,-999.0,61,-99.99,,,0.00,Acu-Link.com,2013-01-16 08:30:00,
2013-01-16 03:45:00,33.3,20.9,30.06,ESE,112,6.8,-999.0,60,-99.99,,,0.00,Acu-Link.com,2013-01-16 08:45:00,
2013-01-16 04:00:00,33.3,20.9,30.05,NE,45,5.8,-999.0,60,-99.99,,,0.00,Acu-Link.com,2013-01-16 09:00:00,
2013-01-16 04:22:00,32.7,20.4,30.05,NE,45,5.8,-999.0,60,-99.99,,,0.00,Acu-Link.com,2013-01-16 09:22:00,
2013-01-16 04:37:00,32.9,21.3,30.03,East,90,6.3,-999.0,62,-99.99,,,0.00,Acu-Link.com,2013-01-16 09:37:00,
2013-01-16 04:53:00,33.1,21.9,30.02,NNE,22,4.7,-999.0,63,-99.99,,,0.00,Acu-Link.com,2013-01-16 09:53:00,
2013-01-16 05:08:00,33.1,22.3,30.01,East,90,4.7,-999.0,64,-99.99,,,0.00,Acu-Link.com,2013-01-16 10:08:00,
2013-01-16 05:23:00,33.3,22.8,30.01,NE,45,6.3,-999.0,65,-99.99,,,0.00,Acu-Link.com,2013-01-16 10:23:00,
2013-01-16 05:38:00,33.4,23.3,30.01,ENE,67,6.8,-999.0,66,-99.99,,,0.00,Acu-Link.com,2013-01-16 10:38:00,
2013-01-16 05:54:00,33.4,23.6,30.01,NE,45,5.8,-999.0,67,-99.99,,,0.00,Acu-Link.com,2013-01-16 10:54:00,
2013-01-16 06:09:00,33.8,27.1,30.01,ENE,67,5.8,-999.0,76,-99.99,,,0.00,Acu-Link.com,2013-01-16 11:09:00,
2013-01-16 06:24:00,33.6,30.4,30.01,ESE,112,12.5,-999.0,88,-99.99,,,0.00,Acu-Link.com,2013-01-16 11:24:00,
2013-01-16 06:40:00,33.1,31.0,30.00,ESE,112,13.0,-999.0,92,-99.99,,,0.00,Acu-Link.com,2013-01-16 11:40:00,
2013-01-16 06:55:00,33.1,31.0,29.99,ESE,112,8.9,-999.0,92,-99.99,,,0.00,Acu-Link.com,2013-01-16 11:55:00,
2013-01-16 07:10:00,32.9,30.8,29.98,East,90,12.5,-999.0,92,-99.99,,,0.00,Acu-Link.com,2013-01-16 12:10:00,
2013-01-16 07:25:00,32.9,30.8,29.99,ENE,67,10.4,-999.0,92,-99.99,,,0.00,Acu-Link.com,2013-01-16 12:25:00,
2013-01-16 07:41:00,32.9,30.8,29.97,NE,45,8.3,-999.0,92,-99.99,,,0.00,Acu-Link.com,2013-01-16 12:41:00,
2013-01-16 07:56:00,32.9,30.8,29.97,ENE,67,5.8,-999.0,92,-99.99,,,0.00,Acu-Link.com,2013-01-16 12:56:00,
2013-01-16 08:11:00,33.1,31.3,29.97,ESE,112,8.9,-999.0,93,-99.99,,,0.00,Acu-Link.com,2013-01-16 13:11:00,
2013-01-16 08:26:00,33.4,31.6,29.97,ESE,112,8.3,-999.0,93,-99.99,,,0.01,Acu-Link.com,2013-01-16 13:26:00,
2013-01-16 08:42:00,33.3,31.5,29.97,ESE,112,7.3,-999.0,93,-99.99,,,0.02,Acu-Link.com,2013-01-16 13:42:00,
2013-01-16 08:57:00,32.9,31.1,29.95,ESE,112,6.8,-999.0,93,-99.99,,,0.02,Acu-Link.com,2013-01-16 13:57:00,
2013-01-16 09:12:00,32.4,30.6,29.96,NNE,22,3.2,-999.0,93,-99.99,,,0.03,Acu-Link.com,2013-01-16 14:12:00,
2013-01-16 09:28:00,31.1,29.3,29.93,NE,45,4.7,-999.0,93,-99.99,,,0.03,Acu-Link.com,2013-01-16 14:28:00,
2013-01-16 09:43:00,31.3,29.5,29.92,NNE,22,4.7,-999.0,93,-99.99,,,0.03,Acu-Link.com,2013-01-16 14:43:00,
2013-01-16 09:58:00,31.3,29.3,29.90,NNE,22,4.7,-999.0,92,-99.99,,,0.03,Acu-Link.com,2013-01-16 14:58:00,
2013-01-16 10:14:00,31.3,29.3,29.90,NNE,22,4.2,-999.0,92,-99.99,,,0.03,Acu-Link.com,2013-01-16 15:14:00,
2013-01-16 10:29:00,31.5,29.4,29.89,ENE,67,5.8,-999.0,92,-99.99,,,0.03,Acu-Link.com,2013-01-16 15:29:00,
2013-01-16 10:44:00,31.5,29.2,29.88,NE,45,7.8,-999.0,91,-99.99,,,0.03,Acu-Link.com,2013-01-16 15:44:00,
2013-01-16 10:59:00,31.3,29.0,29.88,NE,45,5.3,-999.0,91,-99.99,,,0.03,Acu-Link.com,2013-01-16 15:59:00,
2013-01-16 11:15:00,31.3,28.7,29.86,NE,45,7.3,-999.0,90,-99.99,,,0.03,Acu-Link.com,2013-01-16 16:15:00,
2013-01-16 11:30:00,31.3,28.7,29.84,NE,45,7.3,-999.0,90,-99.99,,,0.03,Acu-Link.com,2013-01-16 16:30:00,
2013-01-16 11:45:00,31.6,29.0,29.82,East,90,6.8,-999.0,90,-99.99,,,0.03,Acu-Link.com,2013-01-16 16:45:00,
2013-01-16 12:01:00,31.8,29.2,29.81,ENE,67,6.3,-999.0,90,-99.99,,,0.03,Acu-Link.com,2013-01-16 17:01:00,
2013-01-16 12:16:00,31.6,29.0,29.81,NE,45,6.3,-999.0,90,-99.99,,,0.03,Acu-Link.com,2013-01-16 17:16:00,
2013-01-16 12:31:00,31.6,29.0,29.80,NE,45,6.3,-999.0,90,-99.99,,,0.03,Acu-Link.com,2013-01-16 17:31:00,
2013-01-16 12:47:00,31.6,29.0,29.79,NE,45,6.3,-999.0,90,-99.99,,,0.03,Acu-Link.com,2013-01-16 17:47:00,
2013-01-16 13:02:00,31.6,29.3,29.78,NNE,22,4.2,-999.0,91,-99.99,,,0.03,Acu-Link.com,2013-01-16 18:02:00,
2013-01-16 13:17:00,31.5,29.2,29.79,North,0,2.2,-999.0,91,-99.99,,,0.03,Acu-Link.com,2013-01-16 18:17:00,
2013-01-16 13:33:00,31.5,29.2,29.78,NE,45,4.2,-999.0,91,-99.99,,,0.03,Acu-Link.com,2013-01-16 18:33:00,
2013-01-16 13:48:00,31.6,29.3,29.76,NNE,22,3.7,-999.0,91,-99.99,,,0.03,Acu-Link.com,2013-01-16 18:48:00,
2013-01-16 14:03:00,31.5,29.2,29.75,NE,45,2.7,-999.0,91,-99.99,,,0.03,Acu-Link.com,2013-01-16 19:03:00,
2013-01-16 14:19:00,31.8,29.5,29.73,ESE,112,3.2,-999.0,91,-99.99,,,0.03,Acu-Link.com,2013-01-16 19:19:00,
2013-01-16 14:34:00,32.2,29.9,29.70,ENE,67,4.2,-999.0,91,-99.99,,,0.03,Acu-Link.com,2013-01-16 19:34:00,
2013-01-16 14:49:00,31.8,29.5,29.72,NNE,22,6.3,-999.0,91,-99.99,,,0.03,Acu-Link.com,2013-01-16 19:49:00,
2013-01-16 15:05:00,31.8,29.5,29.73,NE,45,5.8,-999.0,91,-99.99,,,0.03,Acu-Link.com,2013-01-16 20:05:00,
2013-01-16 15:20:00,31.8,29.5,29.70,NE,45,4.7,-999.0,91,-99.99,,,0.03,Acu-Link.com,2013-01-16 20:20:00,
2013-01-16 15:35:00,31.6,29.3,29.71,NE,45,4.7,-999.0,91,-99.99,,,0.03,Acu-Link.com,2013-01-16 20:35:00,
2013-01-16 15:51:00,31.5,29.2,29.70,NE,45,3.7,-999.0,91,-99.99,,,0.03,Acu-Link.com,2013-01-16 20:51:00,
2013-01-16 16:06:00,31.5,29.4,29.69,NE,45,5.3,-999.0,92,-99.99,,,0.03,Acu-Link.com,2013-01-16 21:06:00,
2013-01-16 16:21:00,31.3,29.3,29.68,NNE,22,3.7,-999.0,92,-99.99,,,0.03,Acu-Link.com,2013-01-16 21:21:00,
2013-01-16 16:37:00,30.9,28.9,29.68,North,0,1.7,-999.0,92,-99.99,,,0.03,Acu-Link.com,2013-01-16 21:37:00,
2013-01-16 16:52:00,31.1,29.1,29.69,NE,45,5.3,-999.0,92,-99.99,,,0.03,Acu-Link.com,2013-01-16 21:52:00,
2013-01-16 17:07:00,30.9,28.9,29.67,NNE,22,5.8,-999.0,92,-99.99,,,0.03,Acu-Link.com,2013-01-16 22:07:00,
2013-01-16 17:23:00,30.9,28.9,29.69,NNE,22,4.2,-999.0,92,-99.99,,,0.03,Acu-Link.com,2013-01-16 22:23:00,
2013-01-16 17:38:00,30.9,28.9,29.67,NE,45,4.2,-999.0,92,-99.99,,,0.03,Acu-Link.com,2013-01-16 22:38:00,
2013-01-16 17:53:00,30.9,28.9,29.68,East,90,3.7,-999.0,92,-99.99,,,0.03,Acu-Link.com,2013-01-16 22:53:00,
2013-01-16 18:09:00,30.7,28.7,29.67,ESE,112,2.2,-999.0,92,-99.99,,,0.03,Acu-Link.com,2013-01-16 23:09:00,
2013-01-16 18:24:00,30.7,28.7,29.66,NE,45,2.7,-999.0,92,-99.99,,,0.03,Acu-Link.com,2013-01-16 23:24:00,
2013-01-16 18:40:00,30.6,28.6,29.66,WNW,292,3.2,-999.0,92,-99.99,,,0.03,Acu-Link.com,2013-01-16 23:40:00,
2013-01-16 18:55:00,30.6,28.6,29.66,NE,45,5.8,-999.0,92,-99.99,,,0.03,Acu-Link.com,2013-01-16 23:55:00,
2013-01-16 19:10:00,30.4,28.4,29.65,NE,45,5.8,-999.0,92,-99.99,,,0.03,Acu-Link.com,2013-01-17 00:10:00,
2013-01-16 19:25:00,30.6,28.6,29.64,ENE,67,2.7,-999.0,92,-99.99,,,0.03,Acu-Link.com,2013-01-17 00:25:00,
2013-01-16 19:41:00,30.7,28.7,29.63,NW,315,3.7,-999.0,92,-99.99,,,0.03,Acu-Link.com,2013-01-17 00:41:00,
2013-01-16 19:56:00,30.7,28.7,29.64,NNW,337,2.7,-999.0,92,-99.99,,,0.03,Acu-Link.com,2013-01-17 00:56:00,
2013-01-16 20:12:00,30.9,28.9,29.63,NE,45,4.2,-999.0,92,-99.99,,,0.03,Acu-Link.com,2013-01-17 01:12:00,
2013-01-16 20:27:00,30.9,29.1,29.63,NW,315,6.3,-999.0,93,-99.99,,,0.03,Acu-Link.com,2013-01-17 01:27:00,
2013-01-16 20:43:00,30.9,29.1,29.63,NE,45,3.2,-999.0,93,-99.99,,,0.03,Acu-Link.com,2013-01-17 01:43:00,
2013-01-16 20:58:00,30.9,29.1,29.63,NNE,22,2.2,-999.0,93,-99.99,,,0.03,Acu-Link.com,2013-01-17 01:58:00,
2013-01-16 21:13:00,30.9,29.1,29.63,NNE,22,5.3,-999.0,93,-99.99,,,0.03,Acu-Link.com,2013-01-17 02:13:00,
2013-01-16 21:29:00,30.9,29.1,29.63,NNW,337,3.7,-999.0,93,-99.99,,,0.03,Acu-Link.com,2013-01-17 02:29:00,
2013-01-16 21:44:00,30.7,28.9,29.62,NNW,337,4.2,-999.0,93,-99.99,,,0.03,Acu-Link.com,2013-01-17 02:44:00,
2013-01-16 21:59:00,30.7,28.9,29.64,NNW,337,4.7,-999.0,93,-99.99,,,0.03,Acu-Link.com,2013-01-17 02:59:00,
2013-01-16 22:15:00,30.6,28.8,29.63,North,0,6.3,-999.0,93,-99.99,,,0.03,Acu-Link.com,2013-01-17 03:15:00,
2013-01-16 22:30:00,30.4,28.4,29.62,East,90,5.8,-999.0,92,-99.99,,,0.03,Acu-Link.com,2013-01-17 03:30:00,
2013-01-16 22:46:00,30.6,28.6,29.62,WNW,292,6.3,-999.0,92,-99.99,,,0.03,Acu-Link.com,2013-01-17 03:46:00,
2013-01-16 23:01:00,30.6,28.3,29.61,NW,315,5.8,-999.0,91,-99.99,,,0.03,Acu-Link.com,2013-01-17 04:01:00,
2013-01-16 23:16:00,30.4,28.1,29.61,West,270,1.7,-999.0,91,-99.99,,,0.03,Acu-Link.com,2013-01-17 04:16:00,
2013-01-16 23:31:00,30.7,28.4,29.61,NW,315,2.2,-999.0,91,-99.99,,,0.03,Acu-Link.com,2013-01-17 04:31:00,
2013-01-16 23:47:00,30.6,28.3,29.61,WNW,292,1.7,-999.0,91,-99.99,,,0.03,Acu-Link.com,2013-01-17 04:47:00,